Location: Makakahi
(40.6833°S, 175.6000°E)
Time: 22:48:56
(UTC+00:00)

FENGYUN 1C DEB - Pass Details

Date: 05 December 2024
Orbit: 841 x 907 km, 98.9° (Epoch: 11 January)

Event Time Altitude Azimuth Distance (km) Brightness Sun altitude
Rises 09:59:58 0° 174° (S) 3,519 ? -20.2°
Reaches altitude 10° 10:02:31 10° 181° (S) 2,563 ? -20.4°
Maximum altitude 10:07:47 40° 248° (WSW) 1,263 ? -20.9°
Drops below altitude 10° 10:12:55 10° 316° (NW) 2,495 ? -21.4°
Enters shadow 10:14:02 - 320° (NW) 2,904 ? -21.5°
